Regional Weather Roundup
Issued by NWS Sioux Falls, SD

Home | Current Version | Previous Version | Graphics & Text | Print | Product List | Glossary Off
Versions: 1 2 3 4 5 6 7 8 9 10 11 12 13 14 15 16 17 18 19 20 21 22 23 24 25 26 27 28 29 30 31 32 33 34 35 36 37 38 39 40 41 42 43 44 45 46 47 48 49 50

000
ASUS43 KFSD 130102
RWRFSD

WEATHER ROUNDUP FOR SE SOUTH DAKOTA/SW MINNESOTA/NW IOWA
NATIONAL WEATHER SERVICE SIOUX FALLS SD
700 PM CST FRI FEB 12 2016

NOTE: "FAIR" INDICATES FEW OR NO CLOUDS BELOW 12,000 FEET WITH NO
SIGNIFICANT WEATHER AND OR OBSTRUCTIONS TO VISIBILITY.


SDZ038>040-050-052>070-130200-
SOUTHEAST SOUTH DAKOTA

CITY           SKY/WX    TMP DP  RH WIND       PRES   REMARKS
BROOKINGS      CLOUDY     0  -7  72 N8        30.57S WCI -14
CHAMBERLAIN    CLOUDY    13   6  73 E8        30.58R WCI   2
HURON          PTCLDY     5  -4  66 N7        30.64R WCI  -7
MADISON        FAIR       1  -4  78 N12       30.56F WCI -15
MITCHELL       CLOUDY     9   0  67 N9        30.63S WCI  -4
SIOUX FALLS    CLOUDY     4  -6  63 N6        30.59R WCI  -7
WINNER         CLOUDY    20  10  65 E12       30.53R WCI   8
YANKTON        CLOUDY    10   0  61 N6        30.62R WCI   1
$$

MNZ071-072-080-081-089-090-097-098-130200-
SOUTHWEST MINNESOTA

CITY           SKY/WX    TMP DP  RH WIND       PRES   REMARKS
FAIRMONT       CLOUDY     3  -4  72 NW16      30.55R WCI -16
JACKSON        CLOUDY     3  -4  72 NW16      30.56R WCI -16
LUVERNE        CLOUDY     5  -6  61 N7        30.60R WCI  -7
MARSHALL       CLOUDY     0  -5  79 NW12      30.62R WCI -17
MONTEVIDEO     PTCLDY     0  -6  78 N9        30.64S WCI -16
PIPESTONE      CLOUDY     1 -11  55 N7        30.56S WCI -11
REDWOOD FALLS  PTCLDY     3  -5  69 NW14G21   30.60R WCI -15
TRACY          CLOUDY     2  -4  75 NW13      30.60S WCI -15
WINDOM         CLOUDY     0  -6  78 NW15      30.56S WCI -20
WORTHINGTON    CLOUDY     0  -9  65 N10       30.56S WCI -17
$$

IAZ001>003-012>014-020>022-031-032-NEZ013-014-SDZ071-130200-
NORTHWEST IOWA

CITY           SKY/WX    TMP DP  RH WIND       PRES   REMARKS
DENISON        CLOUDY     7   0  72 N6        30.57R WCI  -3
ESTHERVILLE    CLOUDY     2  -4  76 NW15      30.56R WCI -17
SIOUX CITY     CLOUDY    12   1  61 N12       30.62R WCI  -2
SPENCER        CLOUDY     2  -6  69 NW8       30.58R WCI -12
STORM LAKE     CLOUDY     5  -4  66 N15       30.56R WCI -13
$$

ABBREVIATIONS USED IN REMARKS
   TC - TEMPERATURE IN CELSIUS
  WCI - WIND CHILL INDEX
   HX - HEAT INDEX
  VSB - VISIBILITY




USA.gov is the U.S. government's official web portal to all federal, state and local government web resources and services.